ERS 2 DEB, 31137

Orbit data source: Space-Track

ERS 2 DEB, 31137 is space debris in SSO originally from a launch on Fri, 21 Apr 1995 UTC launched from the French Guiana (FRGUI). Debris objects in space refer to the collection of defunct objects orbiting the Earth. Examples of debris include non-operational satellites, rocket bodies, and fragments generated from explosions, collisions, or faulty payload assembly.

Loading next visibility...
Identifier
31137, 1995-021D
Orbit
SSO
Country
Flag of ESAESA
Related business
Manufacturer
Unknown
Mission
Spacecraft
Bus & Motor
Unknown
Mass
Unknown
Launch date (UTC)
1995-04-21 (31 years ago)
Launch vehicle
Unknown
Launch site
French Guiana (FRGUI)
Object type
Payload
Rocket body
Debris
Shape & HBR
Unknown shape, 0.1 m
Radar Cross Section
Medium (>0.1 m² and <1 m²)

Expand to show TLE details & history
Last TLE update: 2 days ago

TLE from 2 days ago
0 ERS 2 DEB
1 31137U 95021D   26171.32248625  .00001494  00000-0  37215-3 0  9990
2 31137  98.6398 187.7887 0005216  68.3943  61.9880 14.53187648172754
Epoch: 2026-06-20T07:44Z
TLE epoch observation values (Epoch: 2026-06-20T07:44:22.812Z)
Latitude
48.90846°
Longitude
-6.86555°
Altitude
721.213 km
Speed
7.5 km/s
True Right ascension
01h 11m 04s
True Declination
48° 44' 14"
Sunlit
Object was in daylight at epoch
Visualization orbit readout
Latitude
Unknown
Longitude
Unknown
Altitude
Unknown
Speed
Unknown
Apparent Right ascension
Unknown
Apparent Declination
Unknown
Sunlit
N/A
Visualization observer readout
Local Sidereal Time
23:08:12
Azimuth
Unknown
Elevation
Unknown
Doppler factor
Unknown
Orbital elements
Apogee altitude
716.066 km
Perigee altitude
708.669 km
Semi-major axis
7,090.504 km
Eccentricity
0.00052
Inclination
98.6398°
RAAN
187.7887°
Arg. of periapsis
68.3943°
True anomaly
62.04078°
Mean anomaly
61.988°
Eccentric anomaly
62.01439°
Mean motion
3.63519 °/min
Orbital period
99.03 mins
BSTAR
0.00037215
Loading maneuver chart data...
Computing Atmospheric mass density...
Loading historical data...
Loading historical data...
Loading historical data...
Loading historical data...
Loading historical data...
Loading historical data...
Loading historical data...

Documentation

Showing up to 5 results
|